レモン彗星

C/2018 DO4 ( Lemmon )

English version
Home page
Updated on April 25, 2020

---------------------------------------------------------------------

・ プロフィール

発見日 2018年2月25日
発見光度 20.6等
発見者 G. J. Leonard (Mount Lemmon Survey)

・ 写真集

・ 軌道要素

Epoch 2019 Aug. 25.0 TT = JDT 2458720.5
T 2019 Aug. 18.40502 TT                                 Rudenko
q   2.4059608            (2000.0)            P               Q
n   0.00749569     Peri.  175.97273     +0.25993994     +0.91236364
a  25.8580005      Node   251.13287     +0.87634464     -0.08534659
e   0.9069549      Incl.  160.47471     +0.40552596     -0.40038550
P 131
From 715 observations 2016 Apr. 5-2020 Jan. 20, mean residual 0".4.

・ 星図

・ 光度変化

        H = 13.5  G = 0.15                [    ,-325]  (              〜2018年 9月27日)
        m1 = 11.0 + 5 logΔ + 10.0 log r  [-325,    ]  (2018年 9月27日〜              )

---------------------------------------------------------------------

軌道要素はM.P.E.C. 2020-G65に掲載されたものです。
星図はステラナビゲータ Ver.10 (アストロアーツ) で作成したものです。
光度グラフはComet for Windowsで作成したものです。

---------------------------------------------------------------------

Copyright(C) Seiichi Yoshida (comet@aerith.net). All rights reserved.